SCP
7 7 7 6 5 4 3 3 2 2 2 2 2 2 2 2 3 3 2 2 2 2 1 1 1 1 1 1 1 1 1 1 1 1 1 1 1 0 0 0 0 0 0
6 6 7 6 5 4 3 3 2 2 2 2 2 2 3 3 3 3 3 3 3 2 2 2 2 2 1 1 1 1 1 1 1 1 1 1 1 0 0 0 0 0 0
5 5 6 6 5 4 3 3 3 2 2 2 2 3 3 3 3 3 3 3 3 3 3 3 3 3 2 2 1 1 1 2 2 2 2 1 1 0 0 0 0 0 0
5 5 5 5 5 5 4 4 3 3 2 2 2 2 2 2 2 2 2 3 3 3 3 3 4 4 4 2 2 2 2 2 3 3 2 2 1 1 0 0 0 0 0
6 6 6 6 6 6 5 5 5 4 2 2 2 2 2 2 1 1 1 2 2 2 2 3 3 4 4 3 3 2 3 3 3 3 3 2 2 1 1 1 1 1 1
7 7 8 8 8 8 8 7 6 4 3 2 2 2 2 2 1 1 1 1 1 1 2 2 3 3 3 3 3 3 3 3 4 4 3 3 2 1 1 1 1 1 1
9 9 9 10 10 11 11 9 6 4 3 3 3 2 2 1 1 1 1 1 1 2 2 2 3 3 3 3 3 3 3 3 4 4 3 2 1 1 1 1 1 1 1
9 9 9 10 12 12 12 9 6 5 4 3 3 2 2 1 1 1 1 1 2 2 2 3 3 3 3 3 3 3 3 3 2 2 2 1 1 1 1 1 2 2 1
9 9 9 10 11 12 11 8 6 5 4 4 3 2 2 2 1 1 1 1 2 2 2 3 3 3 3 3 3 3 3 2 1 1 1 1 1 0 1 1 2 2 2
10 10 10 10 10 10 9 7 6 5 4 4 3 3 3 2 2 1 1 2 2 3 3 3 2 2 2 2 2 3 3 2 1 0 0 1 1 1 1 1 2 2 2
11 11 11 10 9 9 8 7 6 6 5 4 4 3 3 3 2 2 2 2 3 3 3 3 3 2 1 1 1 2 2 2 1 1 1 1 1 1 1 1 2 2 2
11 12 12 11 10 9 8 7 7 7 6 5 5 4 4 3 3 2 2 2 2 3 4 3 3 2 1 0 0 1 1 1 1 1 1 1 2 2 2 2 2 2 2
10 11 12 12 11 10 10 9 8 8 7 6 5 5 4 4 3 3 2 1 1 2 2 2 2 1 0 0 0 0 0 1 1 1 1 2 2 3 3 3 2 2 2
10 11 12 12 12 12 12 11 10 8 8 7 6 5 4 3 3 2 2 1 1 1 1 1 1 0 0 0 1 0 0 0 1 1 1 1 2 3 3 4 4 3 3
8 8 9 10 11 11 11 10 8 6 6 6 5 5 3 3 2 2 1 1 1 0 0 0 1 1 1 1 1 1 0 0 0 1 1 1 2 2 3 3 4 4 4
5 5 6 7 8 9 9 8 5 3 3 3 3 3 2 2 1 1 1 1 0 0 0 1 1 1 1 1 1 1 1 0 0 1 1 1 1 2 2 2 3 3 3
3 4 4 5 6 7 7 6 4 3 1 1 1 1 1 1 1 0 0 0 0 0 1 1 1 1 1 1 1 1 1 0 1 1 1 1 1 1 2 2 2 2 2
3 4 4 5 6 5 6 5 5 3 2 1 1 0 0 0 0 0 0 0 0 0 1 1 1 1 1 1 1 1 1 1 1 1 1 1 1 1 1 1 1 1 1
3 3 5 6 6 5 5 5 5 4 2 2 2 1 0 0 0 0 0 0 1 1 1 1 1 1 1 1 1 1 1 1 1 1 1 1 1 1 1 1 1 1 1
3 3 4 5 6 6 5 5 5 4 3 2 2 1 0 0 0 0 0 1 1 1 1 1 1 1 0 1 1 1 0 1 1 1 1 1 1 1 1 1 1 1 0
4 4 4 5 6 6 6 6 5 4 3 2 2 1 1 0 0 0 0 1 2 2 2 1 1 0 0 1 1 1 1 0 0 0 1 1 1 1 1 1 0 0 0
5 5 5 6 7 6 5 5 5 4 3 2 1 1 1 0 1 1 1 1 1 1 1 1 0 0 0 1 1 1 1 0 0 0 0 0 0 1 1 1 1 0 0
7 7 6 7 7 6 5 4 4 3 2 2 1 1 0 0 1 1 1 1 1 1 0 0 0 0 0 1 1 1 1 0 0 0 0 0 0 0 1 1 1 1 1
8 7 6 7 7 6 4 3 2 2 1 1 1 1 0 0 1 1 1 0 0 0 0 0 0 0 0 1 1 1 1 1 0 0 0 0 0 0 0 1 1 1 1
6 6 7 8 8 7 4 3 2 1 1 1 1 1 1 0 0 0 0 0 0 1 0 0 0 0 0 0 1 1 1 0 0 0 0 0 0 0 0 0 1 1 1
4 6 8 8 8 7 5 3 2 1 1 1 1 1 1 1 0 0 0 0 0 1 1 1 0 0 0 0 1 1 1 0 0 0 0 0 0 0 0 0 0 1 1
Wind_Speed
7 6 6 5 5 5 4 4 4 3 3 3 3 3 3 2 2 2 1 1 2 1 1 1 1 1 0 0 0 0 1 2 2 2 1 1 1 1 1 1 1 1 2
8 7 6 5 5 4 4 4 4 4 3 4 4 4 3 3 3 3 3 2 2 2 2 1 1 1 1 1 1 1 1 2 2 2 1 1 1 2 2 2 2 2 2
7 7 5 5 5 5 4 4 4 4 4 4 4 4 3 3 2 2 2 2 2 2 2 3 2 2 1 1 1 1 1 1 2 2 2 1 1 1 0 1 1 1 2
7 7 6 6 6 5 5 4 4 4 4 4 4 4 3 3 2 2 2 2 2 2 2 3 2 3 3 3 2 2 1 1 1 1 1 1 1 1 1 1 1 1 2
7 7 7 6 5 5 4 4 4 4 4 4 3 2 2 3 2 2 2 2 2 2 2 2 3 3 4 3 3 2 2 2 1 1 2 1 1 1 2 2 2 2 2
7 7 6 6 6 5 5 4 4 3 3 3 3 3 3 3 3 4 3 2 2 3 2 2 2 2 3 3 4 4 4 4 3 3 2 3 3 3 2 2 1 1 2
6 6 6 6 6 6 6 5 4 4 3 3 3 3 3 4 5 5 5 3 3 3 3 3 2 2 2 2 2 3 4 5 6 5 4 4 4 4 3 3 3 3 4
5 5 5 5 6 5 5 5 4 3 4 4 4 4 3 4 6 5 5 3 2 3 3 4 3 3 3 2 2 1 3 3 5 4 5 5 5 4 5 5 4 3 2
5 5 5 5 6 5 5 5 4 4 3 4 4 4 4 4 5 5 4 2 2 3 4 3 4 4 5 4 2 2 3 4 4 6 6 6 6 6 4 2 2 1 2
4 4 4 5 5 5 5 4 3 3 4 3 3 4 5 4 5 6 5 2 2 3 3 3 5 5 6 5 3 3 4 5 3 2 3 4 4 5 6 5 4 3 2
3 3 3 4 4 4 4 3 3 3 2 2 3 3 4 5 6 7 6 3 3 3 3 3 3 6 6 6 5 5 7 5 3 3 3 3 3 3 4 4 5 5 4
4 3 3 3 3 3 3 3 3 3 3 2 2 2 2 3 5 6 7 6 5 4 4 3 3 5 6 6 5 6 6 4 2 2 2 3 3 4 4 4 5 5 5
3 3 2 2 2 2 3 3 2 3 3 2 2 3 3 2 3 6 7 8 7 4 3 4 4 5 5 4 5 5 3 2 3 3 4 5 4 4 3 3 3 3 4
3 2 2 2 1 1 1 2 3 3 3 3 3 3 3 2 2 2 3 3 4 3 3 3 4 4 3 3 3 3 2 3 4 4 4 4 3 2 3 3 3 2 2
3 2 1 2 2 2 2 2 3 3 4 4 4 4 3 3 4 5 3 3 2 2 1 0 1 1 1 2 2 2 2 2 3 3 3 3 3 3 3 3 3 2 2
2 2 1 1 1 1 1 1 1 2 2 3 4 4 4 5 5 4 4 4 3 3 3 1 2 2 3 3 3 3 2 3 3 3 3 3 4 4 4 3 2 3 3
3 2 1 1 1 1 2 2 1 2 2 2 3 4 4 5 5 5 4 3 3 5 2 2 3 3 3 3 3 3 3 3 3 3 3 3 3 3 3 3 3 3 4
1 1 1 1 2 2 2 2 2 1 1 3 3 4 4 4 4 4 3 2 0 2 3 3 3 3 3 3 3 3 3 3 3 3 3 3 3 3 3 4 4 4 4
1 1 1 1 1 1 1 1 1 1 2 2 2 2 3 2 1 1 3 2 3 3 4 3 3 3 3 3 4 3 3 3 3 3 3 3 3 3 4 4 4 5 4
1 1 1 1 1 1 1 1 1 1 2 2 2 2 1 1 0 1 2 3 3 4 4 3 3 3 3 3 3 3 3 3 3 3 3 3 3 4 4 5 4 4 4
0 1 0 0 0 1 1 1 1 1 2 2 2 3 3 2 2 2 2 3 3 4 4 3 3 3 3 3 3 3 3 3 3 3 3 4 4 4 4 4 4 4 4
1 0 0 1 1 0 1 1 1 1 2 2 2 2 1 1 2 2 3 3 3 3 3 2 2 2 2 2 2 2 3 3 3 3 3 4 4 4 3 3 4 4 4
0 0 0 0 0 1 1 1 1 1 1 1 1 1 1 1 1 2 2 2 2 1 1 1 1 2 2 2 1 2 2 3 3 3 3 3 3 3 3 3 4 4 5
0 0 0 0 0 0 1 1 1 1 1 0 0 0 1 1 1 1 1 1 1 1 1 1 1 2 2 2 1 1 1 2 3 3 3 3 4 3 3 4 4 5 5
1 1 0 0 0 0 0 0 0 1 1 1 1 1 1 1 1 1 1 1 1 1 1 1 1 2 2 2 2 2 3 3 3 3 3 3 4 4 4 5 5 5 5
1 1 1 0 0 0 0 0 0 1 1 1 1 1 1 1 1 1 1 1 1 1 1 1 2 2 2 2 2 3 3 3 4 5 3 3 3 4 4 4 6 5 5
Wind_Direction
179 182 179 183 184 175 175 183 183 178 168 168 166 153 151 150 146 148 167 177 176 194 183 162 201 206 207 219 191 198 188 165 205 261 262 266 201 209 185 202 209 217 237
179 176 178 177 175 176 180 182 175 170 166 166 157 149 161 158 156 164 186 201 186 191 202 191 224 209 219 220 194 208 216 196 182 224 254 247 231 224 203 205 216 221 236
172 169 167 171 179 184 182 179 170 165 161 160 153 158 165 161 164 180 189 199 199 203 201 197 213 183 227 235 216 216 227 215 179 182 226 232 240 248 304 266 247 241 242
165 167 170 178 185 185 173 168 167 163 160 162 165 164 163 163 178 195 194 197 210 224 220 208 204 192 209 214 217 218 211 204 180 175 209 244 243 254 151 223 285 277 258
167 172 179 181 179 176 170 166 165 166 171 168 162 162 168 178 191 182 197 202 207 231 244 229 221 204 204 207 206 205 189 188 189 193 211 217 231 209 219 214 234 268 273
173 181 178 174 173 175 175 168 166 171 173 160 171 178 193 207 196 187 180 201 204 207 230 253 247 223 230 231 223 213 195 190 196 196 207 216 231 222 219 214 210 214 267
177 175 173 173 175 177 173 168 179 183 172 174 196 193 203 210 201 194 192 191 202 212 220 232 248 233 225 231 241 246 243 230 207 194 202 220 215 215 199 212 216 215 235
169 169 170 171 172 171 168 173 181 178 178 189 201 201 204 220 207 201 195 196 210 228 229 222 222 237 226 209 217 256 262 252 233 213 210 221 218 211 201 204 211 227 266
160 165 170 169 169 169 175 183 185 179 186 195 197 200 207 231 220 208 188 187 220 248 247 232 219 225 231 204 190 242 274 281 265 238 228 230 226 219 200 173 184 181 256
166 167 167 164 164 169 179 184 182 181 196 200 211 211 208 216 216 204 185 183 214 242 260 253 237 233 234 214 204 217 248 261 264 273 257 255 240 231 212 195 194 200 220
154 143 151 161 167 171 174 175 176 181 187 204 222 229 217 219 221 210 195 191 210 226 244 257 258 250 242 234 220 214 231 238 238 239 250 259 256 245 233 220 208 199 209
142 151 166 177 185 177 173 184 177 173 188 215 235 250 244 234 227 223 213 217 212 211 231 240 249 257 255 248 235 235 238 229 225 235 243 247 246 249 245 235 227 222 221
146 162 177 185 193 187 180 188 182 178 190 208 214 231 250 251 244 235 225 227 225 218 234 245 258 261 260 255 254 253 234 211 214 230 239 243 237 238 240 248 248 240 248
153 173 167 169 187 210 205 194 192 200 203 209 215 228 240 248 249 235 224 229 232 236 258 272 269 262 258 266 274 265 232 220 217 229 239 248 251 244 238 230 233 236 259
159 172 172 188 197 209 222 217 208 215 202 200 215 213 209 234 241 217 197 207 208 213 191 357 332 319 299 298 295 278 263 254 243 242 240 250 252 247 246 235 225 220 225
149 167 178 190 199 195 217 292 284 223 237 220 221 213 224 229 227 219 215 209 201 171 147 207 243 245 249 254 260 270 264 252 249 247 246 242 242 243 247 241 227 225 237
156 172 182 186 198 199 198 198 276 326 329 294 260 243 235 237 228 221 214 208 191 162 180 230 238 238 243 244 243 247 254 252 245 242 242 245 245 244 240 240 237 238 245
156 179 195 209 217 217 215 208 200 209 275 291 278 262 254 243 233 232 217 149 181 189 216 231 242 246 245 243 244 244 248 250 243 243 243 244 244 244 245 246 241 238 242
176 204 216 216 219 218 212 202 200 216 231 261 279 288 265 225 222 228 166 190 223 231 233 235 236 235 237 239 243 244 245 245 244 241 243 245 245 244 250 249 245 248 243
222 242 226 217 217 204 193 190 197 215 231 240 250 253 220 116 131 231 206 223 234 240 238 237 237 234 236 241 243 245 246 248 248 244 246 245 244 242 248 252 250 243 236
224 263 267 171 186 205 212 216 217 224 245 253 260 251 198 192 213 225 227 232 234 239 240 237 236 242 249 252 250 251 251 254 254 254 255 252 247 247 246 243 245 244 242
184 210 184 192 211 250 248 237 239 249 265 273 286 311 253 221 227 229 235 243 240 233 227 225 239 246 247 249 251 251 256 263 266 264 260 257 252 249 251 250 247 245 244
98 152 215 257 239 262 276 284 265 264 282 296 292 288 263 256 250 246 250 259 268 270 261 242 255 272 283 277 266 252 259 269 272 272 266 261 256 253 252 256 259 260 257
101 156 173 269 295 277 269 291 296 285 289 331 340 316 305 289 279 287 299 303 305 306 293 270 272 288 301 303 295 284 281 287 287 276 270 261 258 254 253 255 256 256 259
58 61 65 52 1 324 308 296 314 318 329 335 332 329 330 335 340 349 347 343 338 323 321 320 313 305 295 291 295 300 303 305 305 304 284 267 264 262 260 260 260 263 261
49 38 26 24 359 353 130 16 353 340 342 346 354 358 356 3 3 338 323 332 326 312 307 307 304 300 292 278 284 295 299 305 308 302 289 277 274 274 274 267 267 265 263